Go Sport Running Tour de l’école des Sacrés- Cœurs de Petit-Rechain
Go Sport Running Tour de l’école des Sacrés- Cœurs de Petit-Rechain 02/11/2014 - 9 km
Mise à jour le : 02/11/2014 à 15:38
Classement définitif, aucune correction possible
Place Nom Prénom Dossard Temps Vitesse Allure Place. Cat. Catégorie
1 LEFEBVRE LUDWIG 46 31:44 17,01 3:31 1 Séniors
2 REULAND JULIEN 51 33:08 16,29 3:40 2 Séniors
3 DETHIER JEROME 22 33:32 16,10 3:43 3 Séniors
4 SCHOLZEN CHRISTOPHE 30 33:58 15,89 3:46 4 Séniors
5 OTTAVIANI ERWIN 5 34:51 15,49 3:52 5 Séniors
6 VAN EMELEN GILLES 57 35:58 15,01 3:59 6 Séniors
7 DUPUIS GAETAN 23 36:00 15,00 4:00 7 Séniors
8 D'AFFNAY JEAN-FRANÇOIS 34 36:33 14,77 4:03 8 Séniors
9 D'HAENE OLIVIER 24 36:42 14,71 4:04 9 Séniors
10 AUTUNNO ANTOINE 9 36:51 14,65 4:05 10 Séniors
11 HUPPERTZ PATRICK 20 37:07 14,55 4:07 11 Séniors
12 RANDAXHE ARNAUD 27 38:15 14,11 4:15 1 Espoirs Garçons
13 BECKERS THOMAS 89 38:22 14,07 4:15 2 Espoirs Garçons
14 REGNIER DIDIER 2 38:46 13,93 4:18 1 Vétérans 1
15 VANDENBORRE JULIEN 52 38:58 13,86 4:19 12 Séniors
16 DOURCY ALAIN 76 39:15 13,75 4:21 13 Séniors
17 LEFEBVRE LUC 48 39:17 13,74 4:21 1 Vétérans 2
18 DETAILLE JULIEN 71 39:28 13,68 4:23 14 Séniors
19 GATEZ SEBASTIEN 41 39:36 13,64 4:24 2 Vétérans 1
20 GOMZE XAVIER 70 39:48 13,56 4:25 3 Vétérans 1
21 GOMZÉ MICHEL 18 40:08 13,45 4:27 4 Vétérans 1
22 CRASSON VINCENT 7 40:14 13,42 4:28 2 Vétérans 2
23 DEGUELDRE VINCENT 56 40:26 13,35 4:29 15 Séniors
24 FASSIN JEAN-PHILIPPE 43 40:37 13,29 4:30 16 Séniors
25 CHANTEUX LAURENT 93 40:39 13,28 4:31 17 Séniors
26 JACQUE OLIVIER 58 41:01 13,16 4:33 18 Séniors
27 HENRARD CEDRIC 72 41:10 13,11 4:34 19 Séniors
28 DAVID LAURENT 25 41:12 13,10 4:34 20 Séniors
29 BROUWIER PIERRE 82 41:22 13,05 4:35 1 Vétérans 3
30 NYSSEN PIERRE 33 41:26 13,03 4:36 5 Vétérans 1
31 CUPERS PHILIPPE 6 41:35 12,98 4:37 6 Vétérans 1
32 HALLEUX JEAN MARIE 21 41:46 12,93 4:38 7 Vétérans 1
33 DEVILLERS ALAIN 49 42:18 12,76 4:42 3 Vétérans 2
34 DETHIER ALAIN 14 42:48 12,61 4:45 4 Vétérans 2
35 CANALES ALBERTO 45 42:51 12,60 4:45 5 Vétérans 2
36 HARDY GREGORY 40 43:26 12,43 4:49 21 Séniors
37 BARON FERNANDO 39 43:27 12,42 4:49 22 Séniors
38 HEINDRICHS GREGORY 54 43:28 12,42 4:49 23 Séniors
39 CROISSIAUX FABRICE 4 43:33 12,39 4:50 24 Séniors
40 WEUSTEN CEDRIC 31 43:46 12,33 4:51 25 Séniors
41 GRUSELIN STEVE 17 43:50 12,32 4:52 26 Séniors
42 STAINIER ERIC 103 43:52 12,31 4:52 6 Vétérans 2
43 BRAGARD JEAN MICHEL 13 44:54 12,02 4:59 7 Vétérans 2
44 TONNEAU WILLIAM 28 45:02 11,99 5:00 27 Séniors
45 FASSIN JEFF 101 45:16 11,92 5:01 28 Séniors
46 CHARLIER ALEXANDRE 100 45:18 11,92 5:02 29 Séniors
47 DAVID OLIVIER 97 45:22 11,90 5:02 30 Séniors
48 LAMBERT CHRISTOPHE 78 45:43 11,81 5:04 31 Séniors
49 PONSARD GUY 10 45:46 11,80 5:05 8 Vétérans 2
50 DOHOGNE SANDRINE 87 45:48 11,79 5:05 1 Ainées 1
51 MOTTARD SOPHIE 55 45:49 11,78 5:05 2 Ainées 1
52 BECKERS BENOIT 88 45:50 11,78 5:05 8 Vétérans 1
53 RENNOTTE CHRISTIAN 80 45:58 11,75 5:06 32 Séniors
54 CHEBIL RAMI 92 46:53 11,51 5:12 33 Séniors
55 VANDEN BULCK CHRISTOPHE 96 47:13 11,43 5:14 34 Séniors
56 RENOTTE RAPHAEL 83 47:16 11,42 5:15 35 Séniors
57 PHILIPPE AUDREY 32 47:18 11,41 5:15 1 Dames
58 SOMJA JEAN-PHILIPPE 66 47:29 11,37 5:16 36 Séniors
59 PAROTTE JEAN CHRISTOPHE 91 47:33 11,36 5:17 9 Vétérans 1
60 GUENFOUDI AICHA 35 47:38 11,34 5:17 3 Ainées 1
61 LEJEUNE DAVID 19 47:39 11,33 5:17 10 Vétérans 1
62 DARTOIS FABRICE 65 47:40 11,33 5:17 11 Vétérans 1
63 DEWIL JEAN 64 47:46 11,30 5:18 9 Vétérans 2
64 SCHREURS BERNARD 59 48:10 11,21 5:21 37 Séniors
65 COLLARD GREGORY 74 48:32 11,12 5:23 38 Séniors
66 ROYEN CEDRIC 69 48:33 11,12 5:23 39 Séniors
67 PIRLOT BERNARD 99 48:34 11,12 5:23 40 Séniors
68 PIELA RUDY 44 48:35 11,11 5:23 41 Séniors
69 STASSEN BENJAMIN 50 49:27 10,92 5:29 42 Séniors
70 PIROTTON DIDIER 37 49:38 10,88 5:30 12 Vétérans 1
71 NICOLET DAVID 11 50:12 10,76 5:34 13 Vétérans 1
72 BRABANT JEAN JACQUES 15 50:16 10,74 5:35 10 Vétérans 2
73 RAHIER MURIEL 68 50:21 10,72 5:35 4 Ainées 1
74 RAHIER FRED 67 50:33 10,68 5:37 14 Vétérans 1
75 RENAERS STEPHANE 77 51:11 10,55 5:41 15 Vétérans 1
76 COURTEJOIE CHANTAL 60 51:12 10,55 5:41 1 Ainées 2
77 JOWAY ERIC 75 51:13 10,54 5:41 11 Vétérans 2
78 LOUSBERG EMELINE 1 51:14 10,54 5:41 1 Espoirs Filles
79 LOUSBERG ISABELLE 3 51:16 10,53 5:41 5 Ainées 1
80 LEVAUX MORGANE 36 51:23 10,51 5:42 2 Dames
81 LAMBERT HENRI 98 52:14 10,34 5:48 16 Vétérans 1
82 THOMSIN STEPHANE 102 53:04 10,17 5:53 43 Séniors
83 MERCENIER JEAN-LUC 42 53:39 10,06 5:57 17 Vétérans 1
84 NICKELS DANIELLE 63 54:55 9,83 6:06 1 Ainées 3
85 SIMONIS MATHIEU 29 55:38 9,71 6:10 44 Séniors
86 GENOT OLIVIER 8 55:39 9,70 6:11 18 Vétérans 1
87 MINGUET XAVIER 81 55:41 9,70 6:11 45 Séniors
88 THILMANY CHRISTINE 73 56:20 9,59 6:15 3 Dames
89 VERCAMMEN MICHEL 84 56:21 9,58 6:15 19 Vétérans 1
90 BONHOMME JULIE 94 57:31 9,39 6:23 4 Dames
91 DENIS MADELINE 26 58:11 9,28 6:27 5 Dames
92 DELBEUCK AURORE 90 58:32 9,22 6:30 6 Dames
93 DAVID DIDIER 95 58:57 9,16 6:33 20 Vétérans 1
94 DUMBRUCH VIRGINIE 85 1:00:50 8,88 6:45 7 Dames
95 LEROY JEAN MICHEL 86 1:00:52 8,87 6:45 46 Séniors
96 LIBEREK ALEXANDER 16 1:04:45 8,34 7:11 2 Vétérans 3